Tracking 19628 objects as of 27-May-2019
HD Live streaming from Space Station
objects crossing your sky now
Watch Starlink satellites crossing your sky!

PRISMA (MANGO)

Track PRISMA (MANGO) now!
10-day predictions
PRISMA (MANGO) is classified as:


NORAD ID: 36599
Int'l Code: 2010-028B
Perigee: 674.0 km
Apogee: 752.2 km
Inclination: 98.3 °
Period: 98.9 minutes
Semi major axis: 7084 km
RCS: 0.562 m2 (medium)
Launch date: June 15, 2010
Source: Sweden (SWED)
Launch site: Orenburg, Russia (OREN)
aabbcc
Your satellite tracking list
Your tracking list is empty




NASA's NSSDC Master Catalog

Two Line Element Set (TLE):
1 36599U 10028B   19146.66551615 -.00000014  00000-0  78539-5 0  9992
2 36599  98.3046   4.3837 0055230 300.6524  58.9240 14.56046478473696
Source of the keplerian elements: AFSPC